This demonstration page uses our WeatherBlox Daily Observations layout. Learn more.

Left ArrowRight Arrow

39.51506, -84.39828

Hourly Observations for February 12, 2020

Temp ( °F °C ) Dew Point ( °F °C ) Humidity (%) Winds ( mph kmh ) Pressure ( in mb ) Visibility ( mi km ) Precip ( " mm )
12:15 am 00:15 Clear 31 -0.8 29 -1.8 93 93 Calm 30.26 1025 7 11.26538 0 0
12:35 am 00:35 Clear 31 -0.8 29 -1.6 94 94 Calm 30.26 1025 7 11.26538 0 0
12:55 am 00:55 Clear 30 -0.9 29 -1.6 95 95 Calm 30.25 1024 7 11.26538 0 0
1:15 am 01:15 Clear 30 -1.1 29 -1.7 96 96 Calm 30.26 1025 7 11.26538 0 0
1:35 am 01:35 Clear 30 -1.1 29 -1.8 95 95 Calm 30.26 1025 7 11.26538 0 0
1:55 am 01:55 Clear 29 -1.5 28 -2.1 96 96 Calm 30.25 1024 7 11.26538 0 0
2:15 am 02:15 Clear 29 -1.7 28 -2.3 96 96 Calm 30.25 1024 7 11.26538 0 0
2:35 am 02:35 Clear with Mist and Fog 28 -2 28 -2.3 98 98 Calm 30.25 1024 5 8.0467 0 0
2:55 am 02:55 Clear with Mist and Fog 28 -2.2 28 -2.5 98 98 Calm 30.25 1024 2.5 4.02335 0 0
3:15 am 03:15 Clear with Mist and Fog 28 -2.1 28 -2.2 99 99 N 3 6 30.25 1024 4 6.43736 0 0
3:35 am 03:35 Clear with Mist and Fog 28 -2.3 28 -2.5 99 99 Calm 30.23 1024 7 11.26538 0 0
3:55 am 03:55 Clear with Mist and Fog 28 -2.4 27 -2.9 96 96 Calm 30.23 1024 5 8.0467 0 0
4:15 am 04:15 Clear with Mist and Fog 28 -2.4 27 -2.8 97 97 Calm 30.23 1024 5 8.0467 0 0
4:35 am 04:35 Clear with Mist and Fog 29 -1.9 28 -2.1 99 99 Calm 30.23 1024 4 6.43736 0 0
4:55 am 04:55 Clear with Mist and Fog 27 -2.7 27 -2.9 99 99 Calm 30.23 1024 3 4.82802 0 0
5:15 am 05:15 Mostly Cloudy with Freezing Fog 25 -3.7 25 -3.9 99 99 Calm 30.25 1024 0.5 0.80467 0 0
5:35 am 05:35 Clear with Mist and Fog 27 -2.9 26 -3.1 99 99 Calm 30.23 1024 3.5 5.63269 0 0
5:55 am 05:55 Clear with Mist and Fog 26 -3.1 26 -3.2 99 99 Calm 30.23 1024 3.5 5.63269 0 0
6:15 am 06:15 Clear with Mist and Fog 27 -3 26 -3.2 99 99 Calm 30.22 1023 5 8.0467 0 0
6:35 am 06:35 Clear with Mist and Fog 27 -3 26 -3.3 98 98 Calm 30.22 1023 4 6.43736 0 0
6:55 am 06:55 Clear with Mist and Fog 27 -2.7 27 -3 98 98 Calm 30.23 1024 5 8.0467 0 0
7:15 am 07:15 Clear with Mist and Fog 27 -2.7 26 -3.1 97 97 Calm 30.23 1024 5 8.0467 0 0
7:35 am 07:35 Sunny with Mist and Fog 27 -2.8 26 -3.2 97 97 Calm 30.22 1023 4 6.43736 0 0
7:55 am 07:55 Sunny with Mist and Fog 27 -2.8 26 -3.2 97 97 Calm 30.21 1023 4 6.43736 0 0
8:15 am 08:15 Sunny with Mist and Fog 27 -2.7 26 -3.2 96 96 Calm 30.21 1023 3.5 5.63269 0 0
8:35 am 08:35 Sunny with Mist and Fog 29 -1.8 28 -2.2 97 97 Calm 30.2 1023 3 4.82802 0 0
8:55 am 08:55 Sunny with Mist and Fog 29 -1.5 29 -1.9 97 97 Calm 30.21 1023 3.5 5.63269 0 0
9:15 am 09:15 Sunny with Mist and Fog 30 -0.9 29 -1.7 94 94 Calm 30.22 1023 5 8.0467 0 0
9:35 am 09:35 Sunny with Mist and Fog 31 -0.6 28 -2.1 90 90 Calm 30.21 1023 7 11.26538 0 0
9:55 am 09:55 Sunny with Mist and Fog 32 -0.1 29 -1.5 90 90 Calm 30.21 1023 7 11.26538 0 0
10:15 am 10:15 Sunny 33 0.6 29 -1.4 87 87 Calm 30.19 1022 7 11.26538 0 0
10:35 am 10:35 Sunny 34 1.1 29 -1.9 81 81 Calm 30.19 1022 10 16.0934 0 0
10:55 am 10:55 Partly Cloudy 35 1.9 25 -3.8 66 66 ESE 5 7 30.16 1021 10 16.0934 0 0
11:15 am 11:15 Sunny 37 2.6 26 -3.4 65 65 E 8 13 30.13 1020 10 16.0934 0 0
11:35 am 11:35 Sunny 37 2.5 25 -3.8 64 64 ESE 7 11 30.14 1021 10 16.0934 0 0
11:55 am 11:55 Cloudy 37 2.5 26 -3.4 65 65 SE 6 9 30.15 1021 10 16.0934 0 0
12:15 pm 12:15 Cloudy 37 2.7 26 -3.2 65 65 SE 8 13 30.17 1022 10 16.0934 0 0
12:35 pm 12:35 Cloudy 37 2.8 27 -2.9 66 66 ESE 6 9 30.16 1021 10 16.0934 0 0
12:55 pm 12:55 Cloudy 37 2.9 27 -2.8 66 66 SE 7 11 30.15 1021 10 16.0934 0 0
1:15 pm 13:15 Cloudy 37 3 27 -2.7 67 67 ESE 6 9 30.12 1020 10 16.0934 0 0
1:35 pm 13:35 Cloudy with Light Rain 37 2.9 28 -2 71 71 E 5 7 30.09 1019 10 16.0934 0 0
1:55 pm 13:55 Cloudy with Light Rain 37 2.8 29 -1.9 72 72 SE 7 11 30.09 1019 10 16.0934 0 0
2:15 pm 14:15 Cloudy with Light Rain 37 2.6 29 -1.4 75 75 ESE 7 11 30.06 1018 10 16.0934 0 0
2:35 pm 14:35 Cloudy with Light Rain 37 2.6 31 -0.5 80 80 SE 6 9 30.04 1017 7 11.26538 0 0
2:55 pm 14:55 Cloudy with Light Rain 37 2.5 32 -0.2 83 83 E 7 11 30.02 1017 7 11.26538 0 0
3:15 pm 15:15 Cloudy with Light Rain 36 2.4 32 0.1 85 85 E 9 15 30.01 1016 5 8.0467 0 0
3:35 pm 15:35 Cloudy with Light Rain 36 2.2 33 0.4 88 88 E 6 9 30.01 1016 4 6.43736 0 0
3:55 pm 15:55 Cloudy with Light Rain 35 1.9 33 0.6 91 91 ENE 6 9 29.99 1016 3 4.82802 0 0
4:15 pm 16:15 Cloudy with Rain 35 1.7 33 0.8 94 94 ENE 6 9 29.98 1015 2.5 4.02335 0 0
4:35 pm 16:35 Cloudy with Light Rain 35 1.5 33 0.6 94 94 E 8 13 29.98 1015 3 4.82802 0 0
4:55 pm 16:55 Cloudy with Light Wintry Mix 34 1.3 33 0.5 94 94 ENE 7 11 29.97 1015 2.5 4.02335 0 0
5:15 pm 17:15 Cloudy with Light Wintry Mix 34 1.1 33 0.4 95 95 E 6 9 29.97 1015 2.5 4.02335 0 0
5:35 pm 17:35 Cloudy with Light Rain 34 1 33 0.4 96 96 NE 6 9 29.95 1014 2 3.21868 0 0
5:55 pm 17:55 Cloudy with Light Rain 34 0.9 33 0.4 97 97 NNE 8 13 29.94 1014 2.5 4.02335 0 0
6:15 pm 18:15 Cloudy with Light Wintry Mix 33 0.7 33 0.3 97 97 NE 7 11 29.93 1014 2 3.21868 0 0
6:35 pm 18:35 Cloudy with Light Snow 33 0.7 33 0.3 97 97 NNE 8 13 29.92 1013 3 4.82802 0 0
6:55 pm 18:55 Cloudy with Light Snow 33 0.6 32 0.2 97 97 NNE 9 15 29.89 1012 2.5 4.02335 0 0
7:15 pm 19:15 Cloudy with Light Wintry Mix 33 0.6 32 0.2 97 97 NE 13 20 29.84 1011 2.5 4.02335 0 0
7:35 pm 19:35 Cloudy with Light Rain 33 0.7 33 0.3 97 97 E 3 6 29.88 1012 3.5 5.63269 0 0
7:55 pm 19:55 Cloudy with Light Snow 33 0.7 33 0.3 97 97 NE 6 9 29.87 1012 2.5 4.02335 0.01 0.254
8:15 pm 20:15 Cloudy with Light Rain 33 0.8 33 0.4 97 97 NE 5 7 29.86 1011 3 4.82802 0 0
8:35 pm 20:35 Cloudy with Light Rain 33 0.7 33 0.4 98 98 ENE 10 17 29.75 1008 3 4.82802 0 0
8:55 pm 20:55 Cloudy with Light Rain 34 1.1 33 0.5 96 96 NE 9 15 29.76 1008 7 11.26538 0 0
9:15 pm 21:15 Cloudy with Light Rain 34 1.1 33 0.4 95 95 NE 8 13 29.74 1007 7 11.26538 0 0
9:35 pm 21:35 Cloudy with Light Rain 34 1.2 33 0.6 96 96 E 5 7 29.76 1008 7 11.26538 0 0
9:55 pm 21:55 Cloudy with Drizzle 34 1.1 33 0.7 97 97 NNE 6 9 29.77 1008 3 4.82802 0 0
10:55 pm 22:55 Cloudy with Mist and Fog 34 1.1 34 0.9 99 99 Calm 29.77 1008 4 6.43736 0 0
11:15 pm 23:15 Cloudy with Mist and Fog 34 1.1 34 0.9 99 99 Calm 29.78 1009 4 6.43736 0 0
11:35 pm 23:35 Cloudy with Mist and Fog 34 1.1 34 0.9 99 99 Calm 29.78 1009 5 8.0467 0 0
11:55 pm 23:55 Cloudy with Mist and Fog 34 1.1 34 0.9 99 99 N 7 11 29.74 1007 7 11.26538 0 0

Powered by AerisWeather